Regional Weather Roundup
Issued by NWS

Home | Current Version | Previous Version | Graphics & Text | Print | Product List | Glossary On
Versions: 1 2 3 4 5 6 7 8 9 10 11 12 13 14 15 16 17 18 19 20 21 22 23 24 25 26 27 28 29 30 31 32 33 34 35 36 37 38 39 40 41 42 43 44 45 46 47 48 49 50
000
ASUS45 KABQ 040301
RWRNM
NEW MEXICO REGIONAL WEATHER ROUNDUP
NATIONAL WEATHER SERVICE ALBUQUERQUE NM
900 PM MDT FRI JUL 03 2015

NOTE: "FAIR" MEANS FEW OR NO CLOUDS BELOW 12,000 FEET AGL WITH NO
       SIGNIFICANT WEATHER OR OBSTRUCTIONS TO VISION.

      THIS PRODUCT IS RELEASED AS TWO VERSIONS.  ONE VERSION NEAR
      THE TOP OF THE HOUR CONTAINING PRELIMINARY DATA FROM ALBUQUERQUE
      AND OTHER STATIONS.  A FINAL VERSION WITH ADDITIONAL DATA IS
      ISSUED ABOUT 10 MINUTES AFTER THE HOUR.

NMZ501-503-504-510>518-040400-
NORTHWEST PLATEAU/NORTHCENTRAL MOUNTAINS

CITY           SKY/WX    TMP DP  RH WIND       PRES   REMARKS
FARMINGTON     LGT RAIN  66  60  81 N8        30.16R
SANTA FE       CLOUDY    71  53  52 S3        30.18R
TAOS           MOCLDY    66  46  48 S9        30.25R

$$
NMZ402-403-502-505>509-040400-
WESTCENTRAL MOUNTAINS/SOUTHWEST MOUNTAINS

CITY           SKY/WX    TMP DP  RH WIND       PRES   REMARKS
GALLUP         CLOUDY    68  52  56 S12       30.18R
GRANTS         CLOUDY    71  54  54 S9G20     30.20R
SILVER CITY      N/A     77  57  50 SE7       30.11R

$$
NMZ407-409-411-412-040400-
SOUTHERN DESERTS

CITY           SKY/WX    TMP DP  RH WIND       PRES   REMARKS
LORDSBURG      MOCLDY    88  54  31 NW8       29.98R
DEMING         CLOUDY    83  56  39 NE14      30.00R
HOLLOMAN AFB   MOCLDY    73  60  65 N12       30.00F
ALAMOGORDO     CLOUDY    75  61  60 NE10      30.04R
T OR C         CLOUDY    78  64  61 NE5       30.04R

$$
NMZ519>523-040400-
CENTRAL VALLEYS/CENTRAL HIGHLANDS

CITY           SKY/WX    TMP DP  RH WIND       PRES   REMARKS
ALBUQUERQUE    MOCLDY    79  55  43 SE9       30.09R
DOUBLE EAGLE   MOCLDY    73  55  53 SE7       30.14R
CLINES CORNERS PTCLDY    64  56  75 E5        30.24R
BELEN          FAIR      74  52  46 SE7       30.08F
SOCORRO        NOT AVBL

$$
NMZ524>526-539-540-040400-
SOUTHCENTRAL MOUNTAINS

CITY           SKY/WX    TMP DP  RH WIND       PRES   REMARKS
RUIDOSO        NOT AVBL

$$
NMZ527>531-040400-
NORTHEAST HIGHLANDS/NORTHEAST PLAINS

CITY           SKY/WX    TMP DP  RH WIND       PRES   REMARKS
LAS VEGAS      CLOUDY    63  56  78 NW6       30.23F
RATON          CLOUDY    65  54  67 NW7       30.18F
CLAYTON        CLOUDY    66  58  75 S8        30.10R

$$
NMZ532>537-040400-
EASTCENTRAL PLAINS

CITY           SKY/WX    TMP DP  RH WIND       PRES   REMARKS
TUCUMCARI      MOCLDY    76  62  62 SE6       30.03R
CANNON AFB     MOCLDY    74  64  70 S2        30.06R
CLOVIS AIRPORT MOCLDY    72  57  60 S3          N/A

$$
NMZ028-029-538-040400-
SOUTHEAST PLAINS

CITY           SKY/WX    TMP DP  RH WIND       PRES   REMARKS
ROSWELL        MOCLDY    77  59  53 SE5       30.01R
ARTESIA        PTCLDY    77  57  50 SW5       30.02R
CARLSBAD       PTCLDY    76  64  66 CALM      29.98R
HOBBS          MOCLDY    75  64  69 CALM      30.03R


$$



USA.gov is the U.S. government's official web portal to all federal, state and local government web resources and services.